NORTHEAST SUFFOLK  -  Winter Weather Advisory Winter Weather Advisory     Winter Weather Advisory Winter Weather Advisory        NORTHERN NASSAU  -  Winter Weather Advisory Winter Weather Advisory        NORTHWEST SUFFOLK  -  Winter Weather Advisory Winter Weather Advisory     Winter Weather Advisory Winter Weather Advisory        SOUTHEAST SUFFOLK  -  Winter Weather Advisory Winter Weather Advisory     Winter Weather Advisory Winter Weather Advisory        SOUTHERN NASSAU  -  Winter Weather Advisory Winter Weather Advisory        SOUTHWEST SUFFOLK  -  Winter Weather Advisory Winter Weather Advisory     Winter Weather Advisory Winter Weather Advisory      

Active alerts

Northern Nassau
  Details for Northern Nassau Winter Weather Advisory
Southern Nassau
  Details for Southern Nassau Winter Weather Advisory
Northwest Suffolk
  Details for Northwest Suffolk Winter Weather Advisory  +1 additional alert
Southwest Suffolk
  Details for Southwest Suffolk Winter Weather Advisory  +1 additional alert
Northeast Suffolk
  Details for Northeast Suffolk Winter Weather Advisory  +1 additional alert
Southeast Suffolk
  Details for Southeast Suffolk Winter Weather Advisory  +1 additional alert


WXM80 ListenWXM80 Stop

You find our weather info also at:

UK Metoffice

WeatherCloud

Weather Underground

Northeastern Weather Network

AWEKAS

Citizen Weather Observer Program (CWOP)

HAMweather, WeatherForYou, PWS Weather


Weather Underground History page Text

Daily Summary for January 31, 2017 Units:  English    Metric   Both
« Previous Day
Next Day »
Daily Weekly Monthly Yearly Custom
  High: Low: Average:
Temperature: 33.0 °F 25.9 °F 29.5 °F
Dew Point: 31.7 °F 12.1 °F 22.6 °F
Humidity: 95 % 48 % 77 %
Wind Speed: 8.5 mph 0.0 mph 2 mph
Wind Gust: 11.5 mph - -
Wind:- - SSE
Pressure: 29.99 in 29.73 in -
Precipitation: 0.03 in    
Historical Graphs
 
 
Tabular Data for January 31, 2017
Time Temperature Dew Point Pressure Wind Wind Speed Wind Gust Humidity Rainfall Rate (Hourly)
00:04 29.7 °F 12.4 °F 29.93 in West 8.5 mph 11.5 mph 48 % 0.00 in
00:09 29.6 °F 12.3 °F 29.93 in WNW 4.5 mph 6.9 mph 48 % 0.00 in
00:14 29.5 °F 13.1 °F 29.93 in NW 5.0 mph 9.2 mph 50 % 0.00 in
00:19 29.4 °F 12.6 °F 29.93 in WNW 3.7 mph 6.9 mph 49 % 0.00 in
00:24 29.3 °F 12.5 °F 29.93 in NW 3.3 mph 4.0 mph 49 % 0.00 in
00:34 29.2 °F 12.4 °F 29.94 in WNW 2.6 mph 11.5 mph 49 % 0.00 in
00:39 29.1 °F 12.3 °F 29.94 in WNW 0.6 mph 4.6 mph 49 % 0.00 in
00:44 29.0 °F 12.2 °F 29.94 in WNW 3.0 mph 9.2 mph 49 % 0.00 in
00:49 28.9 °F 12.1 °F 29.94 in West 5.6 mph 11.5 mph 49 % 0.00 in
00:54 28.9 °F 12.1 °F 29.94 in WNW 6.1 mph 8.1 mph 49 % 0.00 in
00:59 28.9 °F 13.0 °F 29.94 in West 4.5 mph 8.1 mph 51 % 0.00 in
01:05 28.8 °F 12.9 °F 29.94 in NW 4.8 mph 9.2 mph 51 % 0.00 in
01:10 28.8 °F 12.5 °F 29.94 in NW 4.4 mph 7.0 mph 50 % 0.00 in
01:15 28.8 °F 12.9 °F 29.95 in NW 5.1 mph 9.2 mph 51 % 0.00 in
01:20 28.7 °F 12.8 °F 29.95 in NW 4.9 mph 8.0 mph 51 % 0.00 in
01:25 28.6 °F 12.7 °F 29.95 in NW 1.8 mph 11.5 mph 51 % 0.00 in
01:30 28.5 °F 13.1 °F 29.95 in WNW 5.5 mph 10.4 mph 52 % 0.00 in
01:40 28.4 °F 13.0 °F 29.95 in WNW 1.5 mph 7.0 mph 52 % 0.00 in
01:45 28.4 °F 13.4 °F 29.95 in WNW 2.7 mph 5.0 mph 53 % 0.00 in
01:50 28.3 °F 13.3 °F 29.95 in WNW 2.6 mph 8.1 mph 53 % 0.00 in
01:55 28.2 °F 13.7 °F 29.95 in WNW 2.4 mph 8.0 mph 54 % 0.00 in
02:00 28.1 °F 13.1 °F 29.96 in WNW 4.2 mph 8.1 mph 53 % 0.00 in
02:05 28.0 °F 13.1 °F 29.95 in NW 1.7 mph 3.5 mph 53 % 0.00 in
02:10 28.0 °F 13.5 °F 29.95 in WNW 2.6 mph 5.0 mph 54 % 0.00 in
02:15 27.9 °F 13.8 °F 29.95 in WNW 3.3 mph 4.6 mph 55 % 0.00 in
02:20 27.8 °F 13.7 °F 29.95 in WNW 1.6 mph 3.0 mph 55 % 0.00 in
02:25 27.8 °F 14.1 °F 29.95 in West 2.9 mph 4.0 mph 56 % 0.00 in
02:30 27.7 °F 14.0 °F 29.95 in NW 1.1 mph 3.5 mph 56 % 0.00 in
02:35 27.6 °F 13.5 °F 29.96 in NW 2.2 mph 8.1 mph 55 % 0.00 in
02:40 27.5 °F 13.4 °F 29.96 in West 3.4 mph 8.0 mph 55 % 0.00 in
02:45 27.4 °F 13.3 °F 29.96 in NW 5.7 mph 9.2 mph 55 % 0.00 in
02:50 27.4 °F 13.3 °F 29.97 in NW 3.0 mph 6.9 mph 55 % 0.00 in
02:55 27.3 °F 13.2 °F 29.98 in WNW 3.2 mph 6.9 mph 55 % 0.00 in
03:00 27.3 °F 13.7 °F 29.98 in NW 2.2 mph 10.4 mph 56 % 0.00 in
03:05 27.2 °F 13.1 °F 29.98 in NW 5.4 mph 10.0 mph 55 % 0.00 in
03:10 27.3 °F 13.2 °F 29.98 in West 2.8 mph 4.0 mph 55 % 0.00 in
03:16 27.2 °F 13.6 °F 29.98 in West 4.0 mph 6.9 mph 56 % 0.00 in
03:21 27.2 °F 13.1 °F 29.98 in WSW 4.4 mph 9.0 mph 55 % 0.00 in
03:26 27.2 °F 13.6 °F 29.98 in NW 2.3 mph 5.8 mph 56 % 0.00 in
03:31 27.2 °F 14.0 °F 29.99 in NNW 2.3 mph 5.8 mph 57 % 0.00 in
03:36 27.1 °F 13.5 °F 29.99 in WSW 1.2 mph 4.6 mph 56 % 0.00 in
03:41 27.1 °F 13.5 °F 29.98 in West 2.8 mph 10.4 mph 56 % 0.00 in
03:46 27.1 °F 13.5 °F 29.98 in WSW 4.0 mph 4.6 mph 56 % 0.00 in
03:51 27.2 °F 13.6 °F 29.98 in WNW 3.7 mph 6.9 mph 56 % 0.00 in
03:56 27.2 °F 13.6 °F 29.98 in WNW 5.9 mph 8.0 mph 56 % 0.00 in
04:01 27.2 °F 14.0 °F 29.98 in WNW 5.8 mph 9.2 mph 57 % 0.00 in
04:06 27.2 °F 14.0 °F 29.98 in WSW 1.2 mph 4.0 mph 57 % 0.00 in
04:11 27.2 °F 14.0 °F 29.98 in West 2.6 mph 4.6 mph 57 % 0.00 in
04:16 27.2 °F 13.6 °F 29.99 in WSW 2.7 mph 6.0 mph 56 % 0.00 in
04:21 27.2 °F 14.0 °F 29.98 in WNW 1.6 mph 4.6 mph 57 % 0.00 in
04:26 27.1 °F 13.5 °F 29.97 in West 0.5 mph 3.5 mph 56 % 0.00 in
04:31 27.1 °F 13.9 °F 29.97 in WNW 0.9 mph 3.5 mph 57 % 0.00 in
04:36 27.0 °F 13.8 °F 29.97 in NW 3.0 mph 5.8 mph 57 % 0.00 in
04:41 27.0 °F 13.8 °F 29.97 in WNW 2.9 mph 3.0 mph 57 % 0.00 in
04:51 26.9 °F 13.7 °F 29.97 in NW 0.3 mph 3.5 mph 57 % 0.00 in
04:56 26.8 °F 14.0 °F 29.97 in WNW 1.8 mph 3.5 mph 58 % 0.00 in
05:01 26.7 °F 13.9 °F 29.97 in Calm   2.3 mph 58 % 0.00 in
05:06 26.7 °F 13.9 °F 29.96 in WNW 0.4 mph 4.0 mph 58 % 0.00 in
05:11 26.6 °F 13.8 °F 29.96 in Calm     58 % 0.00 in
05:16 26.6 °F 13.8 °F 29.96 in Calm     58 % 0.00 in
05:21 26.6 °F 13.8 °F 29.95 in WNW 0.9 mph 3.5 mph 58 % 0.00 in
05:26 26.5 °F 14.1 °F 29.95 in NNW 2.1 mph 3.5 mph 59 % 0.00 in
05:32 26.5 °F 14.1 °F 29.95 in NNW 2.3 mph 3.5 mph 59 % 0.00 in
05:37 26.5 °F 13.7 °F 29.95 in NW 2.2 mph 3.5 mph 58 % 0.00 in
05:42 26.5 °F 13.3 °F 29.96 in NNW 1.5 mph 3.5 mph 57 % 0.00 in
05:47 26.5 °F 13.3 °F 29.96 in Calm   1.2 mph 57 % 0.00 in
05:52 26.5 °F 13.3 °F 29.95 in Calm   1.2 mph 57 % 0.00 in
05:57 26.5 °F 13.7 °F 29.95 in Calm   1.0 mph 58 % 0.00 in
06:02 26.5 °F 14.1 °F 29.95 in NNW 0.5 mph 2.3 mph 59 % 0.00 in
06:07 26.5 °F 14.1 °F 29.95 in NNW 0.6 mph 2.3 mph 59 % 0.00 in
06:12 26.4 °F 13.6 °F 29.95 in Calm     58 % 0.00 in
06:17 26.3 °F 13.5 °F 29.96 in Calm     58 % 0.00 in
06:22 26.3 °F 13.9 °F 29.96 in Calm     59 % 0.00 in
06:27 26.2 °F 14.2 °F 29.96 in Calm     60 % 0.00 in
06:32 26.1 °F 14.1 °F 29.95 in Calm     60 % 0.00 in
06:37 26.1 °F 14.5 °F 29.95 in Calm     61 % 0.00 in
06:42 26.0 °F 14.8 °F 29.96 in NNW 0.1 mph 1.2 mph 62 % 0.00 in
06:47 26.0 °F 14.8 °F 29.95 in Calm     62 % 0.00 in
06:52 25.9 °F 15.0 °F 29.95 in Calm     63 % 0.00 in
06:57 25.9 °F 15.0 °F 29.95 in Calm     63 % 0.00 in
07:02 25.9 °F 15.0 °F 29.95 in Calm     63 % 0.00 in
07:07 26.0 °F 15.5 °F 29.95 in Calm     64 % 0.00 in
07:12 26.0 °F 15.8 °F 29.95 in Calm     65 % 0.00 in
07:17 26.0 °F 15.8 °F 29.95 in Calm     65 % 0.00 in
07:22 26.0 °F 16.2 °F 29.94 in Calm     66 % 0.00 in
07:27 26.1 °F 16.3 °F 29.94 in Calm     66 % 0.00 in
07:32 26.1 °F 16.6 °F 29.94 in Calm     67 % 0.00 in
07:38 26.1 °F 16.6 °F 29.94 in Calm     67 % 0.00 in
07:43 26.1 °F 16.6 °F 29.94 in Calm     67 % 0.00 in
07:48 26.2 °F 16.7 °F 29.95 in Calm     67 % 0.00 in
07:53 26.2 °F 16.4 °F 29.95 in NNW 1.1 mph 2.3 mph 66 % 0.00 in
07:58 26.2 °F 16.7 °F 29.95 in West 1.3 mph 3.5 mph 67 % 0.00 in
08:03 26.3 °F 16.5 °F 29.95 in Calm   1.2 mph 66 % 0.00 in
08:08 26.4 °F 16.6 °F 29.95 in Calm   1.2 mph 66 % 0.00 in
08:13 26.5 °F 16.7 °F 29.94 in Calm   1.2 mph 66 % 0.00 in
08:18 26.7 °F 16.5 °F 29.95 in Calm     65 % 0.00 in
08:23 27.0 °F 16.4 °F 29.94 in Calm     64 % 0.00 in
08:28 27.3 °F 16.4 °F 29.93 in SE 0.2 mph 2.3 mph 63 % 0.00 in
08:33 27.5 °F 16.5 °F 29.94 in SE 0.3 mph 1.2 mph 63 % 0.00 in
08:38 27.7 °F 16.4 °F 29.94 in SE 1.0 mph 2.3 mph 62 % 0.00 in
08:43 27.8 °F 16.5 °F 29.94 in SE 0.3 mph 2.3 mph 62 % 0.00 in
08:48 28.0 °F 15.9 °F 29.94 in SE 0.8 mph 2.3 mph 60 % 0.00 in
08:53 28.1 °F 16.4 °F 29.94 in SE 0.2 mph 1.0 mph 61 % 0.00 in
08:58 28.3 °F 16.2 °F 29.94 in SE 0.1 mph 2.3 mph 60 % 0.00 in
09:03 28.4 °F 16.3 °F 29.94 in SE 1.9 mph 3.5 mph 60 % 0.00 in
09:08 28.6 °F 16.1 °F 29.93 in SE 0.8 mph 2.3 mph 59 % 0.00 in
09:13 28.7 °F 16.6 °F 29.94 in SE 0.9 mph 2.0 mph 60 % 0.00 in
09:18 28.8 °F 16.3 °F 29.94 in SE 0.7 mph 2.3 mph 59 % 0.00 in
09:23 28.9 °F 16.4 °F 29.94 in Calm     59 % 0.00 in
09:28 28.9 °F 16.4 °F 29.93 in Calm     59 % 0.00 in
09:33 29.0 °F 16.4 °F 29.94 in SE 1.5 mph 2.0 mph 59 % 0.00 in
09:38 29.0 °F 16.1 °F 29.94 in SE 1.0 mph 4.0 mph 58 % 0.00 in
09:43 29.0 °F 16.1 °F 29.95 in SSE 2.0 mph 4.0 mph 58 % 0.00 in
09:48 29.1 °F 15.7 °F 29.94 in Calm   2.0 mph 57 % 0.00 in
09:53 29.1 °F 16.1 °F 29.93 in ESE 0.3 mph 2.3 mph 58 % 0.00 in
09:59 29.2 °F 15.8 °F 29.93 in ESE 0.6 mph 2.3 mph 57 % 0.00 in
10:04 29.2 °F 16.6 °F 29.93 in ESE 1.5 mph 3.0 mph 59 % 0.00 in
10:09 29.2 °F 16.6 °F 29.93 in ESE 1.1 mph 3.5 mph 59 % 0.00 in
10:14 29.2 °F 16.2 °F 29.92 in ESE 1.1 mph 3.5 mph 58 % 0.00 in
10:19 29.2 °F 16.6 °F 29.92 in East 1.3 mph 3.5 mph 59 % 0.00 in
10:24 29.2 °F 16.6 °F 29.92 in SE 3.9 mph 5.8 mph 59 % 0.00 in
10:29 29.3 °F 16.3 °F 29.91 in SSE 0.2 mph 3.5 mph 58 % 0.00 in
10:34 29.4 °F 16.8 °F 29.91 in SSE 1.4 mph 3.5 mph 59 % 0.00 in
10:39 29.5 °F 17.7 °F 29.92 in SE 1.2 mph 4.0 mph 61 % 0.00 in
10:44 29.6 °F 18.5 °F 29.92 in SSE 2.6 mph 6.9 mph 63 % 0.00 in
10:49 29.6 °F 19.3 °F 29.92 in South 2.5 mph 4.0 mph 65 % 0.00 in
10:54 29.6 °F 20.3 °F 29.92 in SE 3.5 mph 5.8 mph 68 % 0.00 in
10:59 29.3 °F 21.1 °F 29.92 in SE 3.7 mph 4.6 mph 71 % 0.00 in
11:04 29.2 °F 21.6 °F 29.92 in SSE 4.4 mph 5.8 mph 73 % 0.00 in
11:09 29.1 °F 22.2 °F 29.91 in SE 3.6 mph 5.0 mph 75 % 0.00 in
11:14 29.1 °F 22.8 °F 29.91 in SE 3.0 mph 6.0 mph 77 % 0.00 in
11:19 28.9 °F 23.2 °F 29.90 in SE 0.8 mph 2.3 mph 79 % 0.00 in
11:24 28.9 °F 23.8 °F 29.89 in East 0.6 mph 3.5 mph 81 % 0.00 in
11:29 28.8 °F 24.3 °F 29.89 in SE 1.4 mph 2.3 mph 83 % 0.00 in
11:34 28.8 °F 24.6 °F 29.89 in SSE 1.3 mph 2.0 mph 84 % 0.00 in
11:39 28.7 °F 24.5 °F 29.88 in East 2.0 mph 3.5 mph 84 % 0.00 in
11:44 28.6 °F 24.7 °F 29.86 in East 2.5 mph 5.8 mph 85 % 0.00 in
11:49 28.5 °F 24.8 °F 29.86 in East 3.6 mph 5.0 mph 86 % 0.00 in
11:54 28.5 °F 24.8 °F 29.86 in East 1.8 mph 3.0 mph 86 % 0.00 in
11:59 28.4 °F 25.0 °F 29.86 in East 0.4 mph 2.3 mph 87 % 0.00 in
12:04 28.4 °F 25.0 °F 29.85 in East 0.7 mph 3.5 mph 87 % 0.00 in
12:10 28.4 °F 25.3 °F 29.85 in ESE 0.8 mph 2.3 mph 88 % 0.00 in
12:15 28.5 °F 25.4 °F 29.84 in East 2.0 mph 3.5 mph 88 % 0.00 in
12:20 28.5 °F 25.4 °F 29.84 in East 2.2 mph 3.5 mph 88 % 0.00 in
12:25 28.5 °F 25.7 °F 29.84 in East 2.2 mph 3.5 mph 89 % 0.00 in
12:30 28.6 °F 25.8 °F 29.84 in East 0.3 mph 2.3 mph 89 % 0.00 in
12:35 28.7 °F 25.9 °F 29.84 in East 1.4 mph 3.5 mph 89 % 0.00 in
12:40 28.8 °F 26.0 °F 29.83 in East 0.7 mph 3.0 mph 89 % 0.00 in
12:45 28.9 °F 26.3 °F 29.83 in East 2.1 mph 3.5 mph 90 % 0.00 in
12:50 29.0 °F 26.2 °F 29.82 in East 1.5 mph 2.3 mph 89 % 0.00 in
12:55 29.0 °F 26.2 °F 29.82 in ENE 2.4 mph 3.5 mph 89 % 0.00 in
13:00 29.0 °F 26.2 °F 29.81 in East 0.5 mph 1.2 mph 89 % 0.00 in
13:05 29.1 °F 26.3 °F 29.81 in East 1.3 mph 3.5 mph 89 % 0.00 in
13:10 29.2 °F 26.4 °F 29.81 in East 2.4 mph 4.6 mph 89 % 0.00 in
13:15 29.2 °F 26.4 °F 29.80 in SE 0.7 mph 2.3 mph 89 % 0.00 in
13:20 29.2 °F 26.6 °F 29.80 in East 1.0 mph 3.5 mph 90 % 0.00 in
13:25 29.3 °F 26.7 °F 29.80 in East 2.2 mph 4.6 mph 90 % 0.00 in
13:30 29.2 °F 26.6 °F 29.79 in East 3.5 mph 5.8 mph 90 % 0.00 in
13:35 29.2 °F 26.6 °F 29.79 in East 1.9 mph 2.3 mph 90 % 0.00 in
13:40 29.2 °F 26.6 °F 29.79 in East 2.8 mph 3.5 mph 90 % 0.01 in
13:45 29.2 °F 26.9 °F 29.78 in East 2.4 mph 5.0 mph 91 % 0.01 in
13:50 29.3 °F 27.0 °F 29.78 in East 3.2 mph 5.0 mph 91 % 0.01 in
13:55 29.3 °F 27.0 °F 29.78 in East 2.6 mph 3.5 mph 91 % 0.01 in
14:00 29.5 °F 27.5 °F 29.76 in East 2.7 mph 3.5 mph 92 % 0.01 in
14:05 29.6 °F 27.6 °F 29.76 in East 4.2 mph 6.9 mph 92 % 0.01 in
14:10 29.6 °F 27.6 °F 29.76 in East 2.9 mph 3.5 mph 92 % 0.01 in
14:16 29.6 °F 27.6 °F 29.76 in East 2.8 mph 5.8 mph 92 % 0.01 in
14:21 29.6 °F 27.6 °F 29.75 in East 3.8 mph 5.0 mph 92 % 0.01 in
14:26 29.6 °F 27.6 °F 29.75 in East 3.4 mph 4.6 mph 92 % 0.01 in
14:31 29.6 °F 27.6 °F 29.75 in East 3.1 mph 4.6 mph 92 % 0.01 in
14:36 29.6 °F 27.6 °F 29.75 in East 3.2 mph 5.8 mph 92 % 0.02 in
14:41 29.6 °F 27.6 °F 29.75 in ENE 4.2 mph 5.8 mph 92 % 0.01 in
14:46 29.7 °F 27.9 °F 29.75 in East 3.9 mph 6.0 mph 93 % 0.01 in
14:51 29.7 °F 27.9 °F 29.74 in ENE 4.0 mph 6.9 mph 93 % 0.01 in
14:56 29.7 °F 27.9 °F 29.74 in East 4.7 mph 6.9 mph 93 % 0.01 in
15:01 29.8 °F 28.0 °F 29.75 in ENE 2.9 mph 3.5 mph 93 % 0.01 in
15:06 29.8 °F 28.0 °F 29.74 in ENE 4.2 mph 6.9 mph 93 % 0.02 in
15:11 30.0 °F 28.2 °F 29.74 in East 3.0 mph 4.6 mph 93 % 0.02 in
15:16 30.1 °F 28.3 °F 29.74 in ENE 5.2 mph 5.8 mph 93 % 0.02 in
15:21 30.2 °F 28.7 °F 29.74 in East 5.1 mph 7.0 mph 94 % 0.02 in
15:26 30.3 °F 28.8 °F 29.74 in East 6.3 mph 9.2 mph 94 % 0.02 in
15:31 30.4 °F 28.9 °F 29.74 in East 3.9 mph 5.0 mph 94 % 0.02 in
15:36 30.4 °F 28.6 °F 29.74 in East 6.6 mph 9.2 mph 93 % 0.01 in
15:41 30.4 °F 28.6 °F 29.74 in East 3.2 mph 4.6 mph 93 % 0.01 in
15:46 30.4 °F 28.6 °F 29.73 in East 8.0 mph 9.2 mph 93 % 0.01 in
15:51 30.3 °F 28.5 °F 29.74 in East 2.9 mph 8.1 mph 93 % 0.01 in
15:56 30.4 °F 28.6 °F 29.74 in East 3.6 mph 5.8 mph 93 % 0.01 in
16:01 30.4 °F 28.6 °F 29.75 in East 3.3 mph 8.1 mph 93 % 0.01 in
16:06 30.5 °F 28.7 °F 29.75 in East 4.5 mph 5.0 mph 93 % 0.00 in
16:12 30.6 °F 28.8 °F 29.74 in East 3.6 mph 8.1 mph 93 % 0.00 in
16:17 30.8 °F 29.3 °F 29.75 in East 3.7 mph 6.0 mph 94 % 0.00 in
16:22 30.9 °F 29.4 °F 29.75 in East 2.9 mph 5.8 mph 94 % 0.00 in
16:27 31.0 °F 29.5 °F 29.75 in East 5.0 mph 9.2 mph 94 % 0.00 in
16:32 31.1 °F 29.6 °F 29.74 in East 3.9 mph 5.8 mph 94 % 0.00 in
16:37 31.2 °F 29.7 °F 29.76 in NNE 1.7 mph 3.5 mph 94 % 0.00 in
16:42 31.3 °F 29.8 °F 29.75 in East 6.7 mph 9.0 mph 94 % 0.00 in
16:47 31.4 °F 29.9 °F 29.75 in East 5.1 mph 7.0 mph 94 % 0.00 in
16:52 31.5 °F 29.7 °F 29.77 in Calm     93 % 0.00 in
16:57 31.5 °F 29.7 °F 29.76 in East 2.7 mph 5.0 mph 93 % 0.00 in
17:02 31.5 °F 29.7 °F 29.77 in ENE 2.2 mph 4.6 mph 93 % 0.00 in
17:07 31.6 °F 29.8 °F 29.77 in ESE 2.0 mph 3.5 mph 93 % 0.00 in
17:12 31.6 °F 29.8 °F 29.78 in East 1.9 mph 3.5 mph 93 % 0.00 in
17:17 31.7 °F 29.9 °F 29.77 in East 1.3 mph 3.5 mph 93 % 0.00 in
17:22 31.7 °F 29.9 °F 29.77 in East 0.5 mph 2.0 mph 93 % 0.00 in
17:27 31.8 °F 30.0 °F 29.77 in East 1.4 mph 2.3 mph 93 % 0.00 in
17:32 31.7 °F 29.9 °F 29.77 in East 0.1 mph 1.0 mph 93 % 0.00 in
17:37 31.7 °F 29.9 °F 29.77 in East 1.7 mph 3.0 mph 93 % 0.00 in
17:42 31.7 °F 29.9 °F 29.77 in East 1.2 mph 2.3 mph 93 % 0.00 in
17:47 31.7 °F 29.9 °F 29.77 in East 1.0 mph 2.3 mph 93 % 0.00 in
17:52 31.8 °F 30.0 °F 29.77 in East 1.5 mph 3.5 mph 93 % 0.00 in
17:57 31.8 °F 30.0 °F 29.78 in East 1.7 mph 3.5 mph 93 % 0.00 in
18:02 31.9 °F 30.4 °F 29.78 in East 2.8 mph 5.0 mph 94 % 0.00 in
18:07 32.0 °F 30.5 °F 29.78 in East 2.5 mph 4.6 mph 94 % 0.00 in
18:13 32.1 °F 30.6 °F 29.79 in East 2.2 mph 2.3 mph 94 % 0.00 in
18:18 32.1 °F 30.6 °F 29.78 in East 2.2 mph 4.6 mph 94 % 0.00 in
18:23 32.2 °F 30.7 °F 29.79 in East 2.4 mph 4.6 mph 94 % 0.00 in
18:28 32.3 °F 30.8 °F 29.79 in ENE 1.4 mph 3.5 mph 94 % 0.00 in
18:33 32.4 °F 30.9 °F 29.79 in East 1.0 mph 2.3 mph 94 % 0.00 in
18:38 32.4 °F 30.9 °F 29.79 in ESE 2.4 mph 3.5 mph 94 % 0.00 in
18:43 32.5 °F 31.0 °F 29.79 in East 1.9 mph 3.5 mph 94 % 0.00 in
18:48 32.4 °F 30.9 °F 29.79 in East 0.1 mph 1.2 mph 94 % 0.00 in
18:53 32.5 °F 31.0 °F 29.79 in East 0.9 mph 2.3 mph 94 % 0.00 in
18:58 32.5 °F 31.0 °F 29.79 in East 0.3 mph 2.0 mph 94 % 0.00 in
19:03 32.5 °F 31.0 °F 29.80 in East 0.4 mph 1.2 mph 94 % 0.00 in
19:08 32.5 °F 31.0 °F 29.80 in East 0.8 mph 2.3 mph 94 % 0.00 in
19:13 32.5 °F 31.0 °F 29.80 in East 0.3 mph 2.3 mph 94 % 0.00 in
19:18 32.5 °F 31.0 °F 29.80 in Calm     94 % 0.00 in
19:23 32.5 °F 31.0 °F 29.80 in East 2.4 mph 3.5 mph 94 % 0.00 in
19:28 32.7 °F 31.4 °F 29.80 in East 1.3 mph 2.3 mph 95 % 0.00 in
19:33 32.8 °F 31.5 °F 29.80 in ENE 6.6 mph 9.2 mph 95 % 0.00 in
19:38 33.0 °F 31.7 °F 29.80 in ENE 6.7 mph 9.2 mph 95 % 0.00 in
19:43 33.0 °F 31.7 °F 29.81 in WSW 2.9 mph 3.5 mph 95 % 0.00 in
19:48 33.0 °F 31.7 °F 29.80 in ENE 5.3 mph 7.0 mph 95 % 0.00 in
19:53 32.9 °F 31.4 °F 29.80 in ENE 2.0 mph 7.0 mph 94 % 0.00 in
19:59 32.8 °F 31.3 °F 29.80 in ENE 3.7 mph 8.1 mph 94 % 0.00 in
20:04 32.7 °F 31.2 °F 29.80 in ENE 2.6 mph 9.2 mph 94 % 0.00 in
20:09 32.7 °F 31.4 °F 29.80 in East 2.2 mph 5.0 mph 95 % 0.00 in
20:14 32.7 °F 31.4 °F 29.80 in ENE 2.7 mph 3.5 mph 95 % 0.00 in
20:19 32.6 °F 31.3 °F 29.80 in ENE 2.6 mph 4.6 mph 95 % 0.00 in
20:24 32.6 °F 31.3 °F 29.80 in ENE 3.5 mph 6.9 mph 95 % 0.00 in
20:29 32.5 °F 31.2 °F 29.80 in ENE 4.5 mph 6.9 mph 95 % 0.00 in
20:34 32.5 °F 31.2 °F 29.80 in ENE 3.3 mph 4.6 mph 95 % 0.00 in
20:39 32.4 °F 31.1 °F 29.80 in ENE 2.5 mph 3.5 mph 95 % 0.00 in
20:44 32.5 °F 31.2 °F 29.80 in ENE 2.3 mph 3.5 mph 95 % 0.00 in
20:49 32.5 °F 31.2 °F 29.80 in NE 4.1 mph 4.6 mph 95 % 0.00 in
20:54 32.5 °F 31.2 °F 29.80 in ENE 3.1 mph 4.6 mph 95 % 0.00 in
20:59 32.6 °F 31.3 °F 29.80 in ENE 3.0 mph 4.6 mph 95 % 0.00 in
21:04 32.6 °F 31.3 °F 29.80 in ENE 2.4 mph 3.5 mph 95 % 0.00 in
21:09 32.6 °F 31.3 °F 29.80 in ENE 2.5 mph 3.5 mph 95 % 0.00 in
21:14 32.6 °F 31.3 °F 29.80 in ENE 2.1 mph 3.5 mph 95 % 0.00 in
21:19 32.6 °F 31.3 °F 29.80 in NE 4.3 mph 6.9 mph 95 % 0.00 in
21:24 32.6 °F 31.3 °F 29.80 in East 2.6 mph 4.6 mph 95 % 0.00 in
21:29 32.6 °F 31.3 °F 29.80 in ENE 2.5 mph 3.5 mph 95 % 0.00 in
21:30 32.6 °F 31.3 °F 29.80 in ENE 2.3 mph 3.5 mph 95 % 0.00 in
21:35 32.6 °F 31.3 °F 29.80 in ENE 0.7 mph 3.5 mph 95 % 0.00 in
21:40 32.5 °F 31.2 °F 29.81 in Calm   2.3 mph 95 % 0.00 in
21:45 32.5 °F 31.2 °F 29.81 in Calm     95 % 0.00 in
21:51 32.5 °F 31.2 °F 29.81 in ENE 0.2 mph   95 % 0.00 in
21:56 32.4 °F 31.1 °F 29.81 in Calm     95 % 0.00 in
22:01 32.4 °F 31.1 °F 29.82 in Calm     95 % 0.00 in
22:06 32.5 °F 31.2 °F 29.81 in Calm     95 % 0.00 in
22:11 32.5 °F 31.2 °F 29.82 in Calm     95 % 0.00 in
22:16 32.4 °F 31.1 °F 29.82 in ENE 1.2 mph 2.3 mph 95 % 0.00 in
22:21 32.3 °F 31.0 °F 29.82 in ENE 0.1 mph 1.2 mph 95 % 0.00 in
22:26 32.3 °F 31.0 °F 29.81 in ENE 0.5 mph 2.3 mph 95 % 0.00 in
22:31 32.3 °F 31.0 °F 29.82 in Calm   2.3 mph 95 % 0.00 in
22:36 32.3 °F 31.0 °F 29.82 in Calm     95 % 0.00 in
22:41 32.3 °F 31.0 °F 29.81 in Calm     95 % 0.00 in
22:46 32.2 °F 30.9 °F 29.81 in Calm   2.3 mph 95 % 0.00 in
22:51 32.2 °F 30.9 °F 29.81 in Calm     95 % 0.00 in
22:56 32.2 °F 30.9 °F 29.82 in Calm     95 % 0.00 in
23:01 32.2 °F 30.9 °F 29.81 in Calm     95 % 0.00 in
23:06 32.2 °F 30.9 °F 29.82 in Calm     95 % 0.00 in
23:11 32.3 °F 31.0 °F 29.82 in Calm     95 % 0.00 in
23:16 32.2 °F 30.9 °F 29.82 in Calm     95 % 0.00 in
23:21 32.1 °F 30.8 °F 29.82 in Calm     95 % 0.00 in
23:26 32.0 °F 30.7 °F 29.82 in Calm     95 % 0.00 in
23:31 31.9 °F 30.6 °F 29.81 in Calm     95 % 0.00 in
23:36 31.9 °F 30.6 °F 29.81 in Calm     95 % 0.00 in
23:41 31.8 °F 30.5 °F 29.81 in Calm     95 % 0.00 in
23:46 31.8 °F 30.5 °F 29.81 in Calm     95 % 0.00 in
23:51 31.8 °F 30.3 °F 29.81 in Calm     94 % 0.00 in
23:57 31.7 °F 30.2 °F 29.81 in Calm     94 % 0.00 in
Crab Meadow Weather
Compliments of Weather Underground - 3 mb

Script developed by  Jim McMurry - jmcmurry@mwt.net Adapted for the template by  Wim van der Kuil - Leuven-Template.eu

Extremes: The longest period without measurable rainfall in the United States was 767 days at Bagdad, California.